Theta_e
304 297 294 294 296 297 299 300 299 300 300 300 299 298 296 295 296 296 297 297 298 298 297 298 299 298 299 301 303 304 305 304 304 304 304 305 306 306 307 307 309 309 309 316 313 312 311 311 310 312 318 324 327 328 329 331 332 333 333 334 333 335 334 333 332 331 331 329 331 331 330 330 332 333 335 336 337 337 336 336 337 337 335 334 333 333
302 295 295 298 299 299 299 299 298 298 299 299 297 297 296 297 295 297 296 297 298 296 297 299 298 299 300 302 303 304 304 303 303 303 304 305 306 307 308 309 310 310 312 310 309 308 309 309 310 310 310 312 318 323 326 327 329 331 332 332 333 334 333 332 332 332 331 332 330 330 330 330 330 331 332 333 335 336 337 337 337 337 336 335 334 332
295 294 297 299 301 301 299 299 298 297 297 298 297 296 295 295 297 296 296 297 298 295 295 298 297 298 300 301 303 303 304 305 305 305 305 305 306 307 307 308 308 309 309 309 309 309 308 310 310 309 309 310 312 318 322 325 327 329 330 331 332 332 332 332 332 332 332 332 332 331 330 331 331 334 334 334 334 336 336 337 337 337 337 337 335 333
291 295 299 300 300 298 298 298 298 297 298 297 296 294 293 296 293 291 295 297 296 296 296 297 296 298 300 302 303 303 302 303 302 301 301 302 302 303 304 304 305 306 307 307 308 307 307 309 309 308 308 309 310 312 317 321 324 326 328 330 331 332 332 332 332 331 333 333 333 333 332 333 333 331 333 335 335 335 335 335 336 337 337 337 336 335
294 297 294 299 299 299 296 297 297 296 294 300 298 296 296 294 294 298 295 296 296 296 295 296 295 295 297 297 299 299 299 298 300 301 301 302 304 305 307 307 308 306 307 308 307 307 307 308 308 309 309 309 309 310 313 318 321 323 326 328 330 330 331 332 331 330 331 331 331 332 333 333 333 333 332 331 331 333 333 333 335 335 336 336 336 336
295 295 296 296 298 297 297 295 296 297 293 295 300 299 297 296 295 296 295 294 294 294 297 295 289 291 297 298 299 299 299 299 301 302 303 304 305 306 305 307 309 309 308 306 307 309 310 310 311 310 309 307 308 308 310 313 317 319 323 325 327 328 329 330 330 329 329 328 328 328 327 326 325 324 324 324 324 326 326 328 332 334 335 335 335 335
295 292 295 296 297 298 297 295 298 298 294 294 294 299 297 296 297 296 295 295 290 288 294 294 289 287 296 296 297 297 298 299 301 302 302 303 304 305 306 307 307 307 309 310 309 310 310 310 311 310 311 311 309 310 310 311 313 316 318 322 324 325 326 328 328 328 326 326 326 326 326 325 324 323 325 327 328 328 328 329 329 330 332 332 332 333
294 293 294 297 297 297 296 294 299 299 295 293 297 298 297 297 297 296 297 297 295 295 294 294 295 289 291 296 298 298 297 298 300 301 302 303 303 304 304 306 306 308 307 309 309 309 310 310 310 309 309 309 309 309 308 309 310 313 317 320 321 323 324 326 327 327 326 325 325 325 325 325 324 324 324 326 326 328 328 327 328 329 329 330 330 331
294 293 296 295 297 295 294 298 301 299 296 296 295 300 298 297 298 298 297 296 297 295 290 293 297 289 289 295 296 297 295 297 298 300 301 302 303 304 305 305 306 306 307 307 310 309 309 309 308 309 308 309 310 312 312 312 313 314 317 319 320 321 323 324 324 325 325 325 325 325 324 324 324 325 325 325 327 326 327 326 326 326 327 327 329 329
297 296 297 298 297 294 295 294 297 299 296 294 298 301 301 302 301 299 296 296 295 290 286 292 294 287 289 296 294 296 295 296 298 300 301 301 303 304 304 305 305 306 307 307 307 308 308 308 308 309 309 310 311 312 314 314 316 318 319 319 321 322 323 324 324 324 324 324 324 324 324 323 323 324 324 324 323 324 324 323 323 323 324 325 325 326
295 297 296 298 296 297 294 295 297 298 298 299 300 299 298 298 297 296 297 294 291 285 288 290 290 291 285 294 295 293 295 297 299 300 300 301 302 303 304 305 306 306 307 307 307 307 308 309 309 310 309 310 312 314 317 317 317 318 319 320 319 318 320 321 322 323 323 324 324 323 324 323 322 323 323 322 322 322 321 320 321 322 322 324 323 324
295 295 298 297 295 297 298 296 298 299 300 301 298 296 295 293 295 293 291 292 286 284 287 287 290 291 284 290 298 297 296 298 300 298 299 301 302 303 303 304 305 306 306 307 308 308 308 309 309 310 309 310 311 313 315 317 319 318 318 317 315 316 316 318 320 322 322 322 322 323 323 323 323 322 321 321 320 320 320 320 320 321 320 320 321 321
294 295 297 296 297 296 300 295 295 297 298 299 297 295 289 286 287 284 287 283 284 284 286 288 290 287 287 292 295 296 297 298 301 301 301 301 302 303 303 304 305 306 307 307 307 308 309 309 309 309 309 310 310 310 312 313 316 319 319 318 317 317 317 317 318 319 319 320 320 320 320 321 321 321 321 320 319 319 318 318 318 318 318 318 318 318
293 298 297 298 297 296 298 293 291 291 295 296 293 291 287 284 282 281 284 286 286 284 286 288 291 285 292 294 299 297 298 300 302 302 303 303 302 303 303 304 304 305 306 306 307 308 308 308 309 309 309 309 309 310 310 311 312 313 313 312 312 312 315 317 318 317 316 317 317 318 317 318 317 317 317 317 316 317 317 317 316 316 316 316 317 317
285 285 292 295 292 299 296 297 296 294 295 295 303 295 290 289 284 280 284 281 282 285 284 288 285 286 286 290 294 298 299 298 298 299 301 303 303 303 303 304 304 304 305 306 306 306 306 307 307 308 308 308 309 310 310 311 311 312 311 310 310 309 310 312 313 314 314 314 314 315 315 315 316 316 316 316 316 315 315 315 315 315 316 315 316 316
290 289 292 295 295 295 297 298 297 299 296 297 298 299 291 290 294 286 286 286 285 284 283 283 285 292 293 296 297 297 297 297 298 298 300 300 301 302 302 303 303 303 304 305 305 305 305 306 306 307 307 307 307 308 309 310 310 310 309 309 309 309 309 309 310 310 310 310 310 311 311 312 311 311 312 313 314 314 314 314 313 313 314 314 314 314
290 286 293 296 296 295 296 295 295 297 287 293 294 289 292 295 292 284 284 284 282 284 284 289 288 292 296 296 296 296 296 295 297 298 299 299 300 302 302 303 303 303 304 305 305 304 304 305 305 306 306 306 306 306 306 306 308 308 308 307 307 307 307 307 308 309 310 310 310 309 310 310 310 311 310 310 310 311 312 312 312 312 312 312 313 313
289 288 292 294 292 294 295 294 297 294 296 294 287 293 295 297 297 289 283 284 283 281 284 288 285 288 288 286 295 294 294 294 295 297 299 300 300 301 303 303 303 304 303 303 303 303 303 304 304 304 304 304 305 305 304 305 306 306 307 306 306 305 305 306 306 306 307 308 308 307 308 308 308 308 309 309 309 309 309 310 310 310 310 310 310 310
297 285 290 291 293 295 297 298 295 297 296 294 293 303 292 285 285 288 287 280 280 280 283 285 287 288 290 291 291 292 293 294 295 297 298 298 299 301 302 303 303 302 302 302 302 303 304 303 303 303 303 303 304 304 304 305 305 305 305 305 305 304 304 305 306 305 305 306 306 306 305 306 306 306 306 306 307 308 307 306 306 306 307 308 307 306
297 288 286 293 293 294 295 295 287 291 297 296 296 293 296 292 289 286 286 287 286 282 281 283 283 284 292 294 294 294 295 296 295 296 297 299 300 301 302 302 302 302 303 303 303 303 303 303 303 303 303 303 303 304 304 304 305 304 304 304 304 304 304 304 304 304 304 304 305 305 304 304 304 304 304 304 304 304 304 304 304 304 304 303 305 305
291 294 285 289 294 294 288 292 291 293 289 290 291 289 293 292 294 292 294 288 286 284 284 283 282 286 294 297 297 297 297 297 296 296 298 299 301 302 302 302 302 303 303 303 303 302 302 302 302 302 302 302 303 303 304 304 303 303 304 303 303 303 302 302 303 303 303 303 303 303 302 302 302 302 303 303 303 303 302 302 302 302 302 303 303 303
289 290 287 287 288 288 291 293 292 293 295 293 292 290 291 289 286 284 283 292 285 285 283 283 281 289 295 293 298 298 299 299 299 298 299 300 301 302 303 303 303 303 303 303 303 302 302 301 301 302 303 303 303 302 302 303 303 302 302 303 302 302 302 301 302 302 302 302 302 301 301 301 301 302 302 302 301 301 300 300 300 300 301 301 301 301
296 295 290 286 288 290 292 293 292 292 290 292 293 293 295 293 292 287 282 285 286 285 285 286 283 286 294 293 294 295 295 299 300 300 300 301 302 302 303 303 304 304 303 303 302 302 302 302 302 302 302 302 302 302 302 302 302 302 301 301 301 300 300 301 301 302 302 301 301 301 301 301 301 301 301 301 300 300 299 300 300 300 299 300 300 301
295 290 288 288 290 291 292 293 293 291 293 293 294 294 294 291 293 291 289 290 286 285 284 285 282 288 294 295 292 293 293 293 299 301 301 301 302 302 302 303 302 302 302 302 302 302 302 302 302 301 301 302 302 301 301 301 301 301 301 300 300 299 299 300 301 301 301 301 301 301 301 300 300 300 299 299 299 299 299 299 299 299 299 299 300 299
289 290 291 285 285 286 289 292 291 294 293 292 292 294 294 296 292 290 288 290 286 287 287 285 281 287 296 294 292 291 292 292 295 300 302 301 301 302 302 302 302 302 301 301 301 301 301 301 301 302 302 301 301 301 301 301 300 300 299 300 299 299 299 299 300 300 300 301 300 300 299 299 299 298 298 298 298 298 298 298 298 298 298 298 298 298
291 291 290 284 281 279 278 280 283 286 288 292 294 295 295 294 294 289 286 287 284 288 288 286 286 292 292 293 291 292 293 292 296 300 301 303 302 301 301 301 301 301 300 300 301 301 300 301 302 301 300 300 300 300 300 300 300 299 299 298 299 299 299 299 299 299 300 300 299 298 298 298 298 297 297 297 297 297 297 297 297 297 297 297 296 297
290 295 292 290 287 285 287 290 296 296 292 288 290 291 292 293 295 293 292 288 285 288 287 289 290 292 290 293 292 292 293 292 294 298 299 300 301 302 301 301 301 301 301 301 301 301 301 300 300 300 300 299 299 299 299 299 299 299 298 297 297 298 298 298 298 298 298 298 298 297 297 296 296 296 296 296 296 296 296 296 296 295 295 295 295 295
291 289 292 293 293 293 295 296 298 296 292 292 291 291 293 291 291 289 288 286 292 287 284 291 293 289 292 294 294 294 294 294 295 297 299 300 301 300 300 300 298 301 301 301 301 300 299 300 299 299 299 298 298 298 298 297 297 297 297 297 297 297 296 297 297 297 297 298 297 296 296 296 296 296 295 296 296 296 295 295 295 295 295 294 294 294
291 288 293 293 293 294 293 293 296 295 295 295 294 293 292 292 291 287 288 293 294 288 286 292 293 291 293 295 296 296 295 294 296 297 299 301 301 301 300 299 299 300 300 300 300 300 300 299 299 299 298 298 298 297 297 297 297 297 297 296 296 296 295 296 296 296 296 296 295 295 295 295 295 295 295 295 294 294 294 294 293 293 293 293 294 294
293 289 293 294 291 294 294 294 296 295 294 294 295 295 294 293 291 291 291 293 293 292 294 294 297 295 296 297 297 298 298 297 298 299 300 300 299 299 299 298 299 299 299 299 300 300 300 300 299 298 298 297 297 297 297 297 296 296 296 295 295 295 294 295 295 295 295 294 294 294 294 294 294 294 294 293 293 292 292 292 292 292 292 292 293 293
293 289 295 294 289 290 292 291 292 294 294 292 295 296 294 293 292 293 293 294 293 293 295 294 296 295 299 300 300 301 299 300 299 298 298 300 300 299 299 298 299 299 300 300 301 300 300 299 299 298 297 297 297 296 296 296 296 296 295 295 295 294 294 294 294 294 293 293 293 293 293 293 292 292 292 292 292 291 291 291 291 291 291 291 291 291
292 288 293 291 286 286 289 289 290 291 289 289 291 293 293 292 289 291 290 294 292 290 292 292 290 292 297 300 301 297 297 297 297 298 298 299 300 299 298 299 299 300 300 300 301 300 299 298 297 296 296 296 295 295 295 295 295 295 294 294 293 293 293 294 294 293 293 292 292 292 291 291 291 291 291 291 290 290 290 290 289 290 290 290 290 290
289 289 287 288 285 285 285 288 287 287 286 284 285 291 294 294 293 294 295 295 295 295 290 288 289 296 298 298 297 295 295 296 297 298 298 299 300 299 299 299 300 301 301 301 300 299 298 298 297 297 296 295 295 295 294 294 294 294 293 293 293 292 292 293 293 293 292 291 291 291 291 290 290 290 290 290 289 289 289 287 288 288 287 287 289 289
291 290 289 290 285 285 281 285 287 284 278 280 292 296 296 294 293 292 292 293 295 296 294 296 297 299 298 297 296 296 296 296 297 299 301 300 300 300 300 300 301 302 301 301 300 299 298 298 297 296 296 296 295 294 294 293 293 293 293 292 292 292 292 292 292 291 291 291 290 290 289 289 289 288 288 288 288 288 288 287 287 287 288 287 288 288
289 289 289 289 286 284 282 284 282 276 279 292 297 299 298 297 297 295 296 296 296 297 297 296 297 298 298 299 299 299 299 299 300 300 300 301 303 301 300 300 301 301 301 300 299 298 298 297 296 295 294 294 293 293 293 292 292 292 291 292 291 291 291 291 291 290 289 289 289 288 288 288 287 287 287 287 287 286 286 286 286 286 286 287 287 286
289 289 290 288 289 286 282 283 276 278 288 294 294 293 297 297 297 295 293 296 297 297 297 296 297 298 300 299 300 302 301 299 299 300 301 302 303 303 301 301 302 301 300 299 298 298 297 296 295 294 293 293 292 292 292 292 292 291 291 291 290 290 290 290 290 289 288 288 288 288 287 287 286 286 286 286 285 285 285 285 285 285 286 286 286 286
295 290 289 286 288 282 283 283 282 289 287 288 292 290 292 291 291 291 287 291 296 297 297 297 297 298 299 299 299 296 296 296 296 297 298 299 302 302 301 301 301 300 300 299 298 297 297 296 295 294 292 292 292 291 290 290 290 290 290 289 289 289 289 289 288 287 287 287 287 287 286 286 285 285 284 284 284 284 284 284 284 285 286 285 285 285
296 290 289 287 285 288 284 282 282 282 279 286 294 297 297 299 298 298 292 288 297 298 299 297 296 297 298 296 295 294 296 295 292 294 299 297 299 300 299 301 301 300 298 297 296 295 295 294 292 292 291 290 289 289 289 289 289 290 288 288 288 288 287 287 286 286 286 286 286 285 286 285 284 283 283 283 282 282 282 283 283 284 285 284 284 284
296 297 293 289 286 285 284 282 281 279 282 292 293 294 297 299 299 298 290 286 295 297 299 298 297 297 297 295 294 294 293 289 291 296 300 296 296 297 296 297 296 296 295 295 294 292 292 291 291 290 289 288 287 288 288 288 288 288 287 287 287 287 286 285 284 284 284 284 285 285 284 284 283 282 281 280 281 281 280 281 282 283 284 284 283 283
289 290 290 287 285 286 284 282 281 284 285 292 294 295 296 299 300 293 281 282 294 298 299 298 297 297 298 297 294 293 292 290 292 297 299 296 295 296 296 294 294 293 293 293 292 292 290 289 288 288 287 286 286 286 286 287 287 286 286 286 286 284 283 282 283 283 283 283 283 283 282 281 281 280 279 279 279 280 280 281 282 282 282 282 282 283
287 287 288 284 286 286 286 284 286 287 292 292 294 293 295 299 295 285 280 289 297 297 297 298 297 298 298 296 294 291 294 298 297 294 294 294 294 293 294 294 293 293 292 291 290 288 288 288 288 287 286 286 285 285 285 286 286 285 285 285 283 282 281 281 282 282 281 281 281 280 280 279 279 278 278 279 278 279 279 280 280 281 281 281 282 282
287 287 287 288 285 284 286 284 284 288 291 292 293 295 297 293 284 283 292 290 296 294 295 296 296 297 297 296 296 296 297 293 294 294 293 293 293 292 292 291 290 290 290 289 288 288 287 286 285 284 283 284 283 283 283 284 284 283 284 282 280 279 279 280 280 280 279 279 278 278 278 278 278 278 277 278 278 278 278 279 280 280 280 281 281 280
287 285 284 284 287 287 287 284 283 279 289 294 293 292 293 288 289 295 291 291 290 293 295 293 297 298 297 296 297 297 293 293 292 292 292 292 291 290 290 289 288 287 287 286 286 287 286 284 283 282 282 281 280 280 280 282 281 281 281 278 277 278 278 278 278 278 278 277 277 277 277 277 277 276 277 277 278 277 277 278 279 279 280 280 280 280
292 285 285 286 290 283 284 282 283 290 291 296 296 290 291 296 296 295 299 293 292 294 294 296 295 299 299 297 296 294 294 292 292 291 291 290 290 290 289 288 287 287 286 286 286 286 285 283 282 281 280 279 278 277 277 278 278 279 277 275 276 277 277 277 277 277 276 276 276 276 276 276 276 276 276 277 277 277 277 277 278 279 280 280 280 280
292 289 289 286 290 288 286 289 291 292 293 298 298 297 297 298 295 296 297 298 296 296 294 294 297 297 297 299 297 294 291 292 291 291 289 289 289 289 288 287 287 285 284 283 282 284 283 282 280 279 278 277 276 276 274 275 275 275 274 274 275 275 275 276 276 275 274 274 274 274 274 274 275 275 276 276 276 276 277 277 277 277 279 279 279 279
288 290 288 290 290 293 291 292 295 291 293 295 295 295 294 297 295 294 296 298 299 297 295 296 298 297 295 296 294 292 292 291 290 290 290 289 289 288 287 286 284 283 282 280 280 281 282 281 280 278 276 275 274 273 273 273 273 272 272 274 274 275 275 274 273 273 273 273 273 273 273 273 274 275 275 275 276 276 276 276 276 277 277 278 278 279
289 288 289 289 290 290 286 294 292 292 294 294 296 294 293 290 293 293 295 297 297 295 294 294 294 295 295 295 295 293 292 291 290 290 289 288 287 287 285 284 282 281 280 279 279 279 279 278 277 277 275 273 273 272 271 271 272 272 273 273 275 275 274 272 272 272 272 272 272 272 273 272 273 273 274 274 275 275 275 276 276 276 276 277 277 278
287 290 289 289 288 289 289 292 291 291 292 292 293 295 295 297 294 292 293 291 290 291 291 292 291 291 292 292 294 292 291 291 290 289 288 287 286 285 284 283 281 280 279 278 278 278 278 277 275 275 274 272 271 270 270 270 271 272 273 273 273 272 271 271 271 271 271 271 271 272 272 272 273 273 273 273 273 273 274 275 275 275 275 276 276 276
288 290 286 289 288 290 293 292 290 291 291 291 291 291 294 296 295 291 290 289 289 290 290 290 292 292 292 293 293 292 291 291 290 289 288 287 286 284 283 281 279 278 276 275 276 276 275 274 273 272 272 270 270 269 269 269 271 272 271 270 270 270 269 270 270 270 270 271 271 271 272 272 271 271 271 272 272 273 274 274 274 274 275 276 277 277
288 286 290 289 286 287 288 289 288 288 289 292 290 291 291 292 292 291 289 289 289 289 289 289 288 289 291 292 293 292 290 290 290 289 288 287 286 284 282 279 278 276 275 274 273 272 271 271 270 270 269 269 268 268 268 269 271 270 269 269 269 269 269 269 269 269 270 270 271 271 271 270 270 270 271 271 271 271 272 275 276 276 275 275 277 279
287 289 289 286 286 286 289 290 293 293 292 289 288 289 292 292 291 290 290 290 290 291 290 289 288 288 289 290 292 292 291 290 289 289 287 286 284 282 280 278 276 274 273 272 270 270 269 268 267 267 267 267 267 267 268 269 269 267 267 267 268 268 268 268 268 269 269 270 269 270 269 269 269 270 270 270 270 270 271 271 273 276 277 277 277 278
Wind_Speed
8 10 12 12 11 14 12 12 6 5 10 13 13 11 8 8 6 7 7 3 2 2 9 10 11 12 10 7 6 6 9 6 7 9 8 8 8 8 7 7 6 7 6 6 4 4 6 6 6 6 7 8 10 10 11 12 12 12 11 11 11 10 10 9 9 8 9 9 9 9 9 9 9 9 9 9 10 10 9 6 7 7 7 5 6 8
5 10 12 12 12 13 14 3 3 3 6 10 9 10 7 9 5 4 4 3 2 2 4 5 7 11 11 10 10 9 8 9 9 10 10 10 10 8 7 7 6 5 3 3 4 6 7 6 7 6 6 7 10 11 12 13 13 12 12 12 11 9 10 10 10 8 9 8 8 7 8 8 7 7 8 8 8 8 8 9 8 8 9 9 10 8
10 12 12 10 2 8 6 4 2 4 6 7 8 8 7 6 7 4 5 3 3 1 5 2 7 9 10 10 9 10 10 7 5 3 4 3 3 4 3 4 5 4 4 4 5 6 6 7 7 6 6 7 8 9 10 10 11 11 11 11 10 9 9 9 9 9 8 8 8 7 6 6 6 6 6 6 6 6 7 9 10 10 9 8 7 6
10 12 5 6 7 9 6 6 6 6 5 6 6 7 8 7 8 4 4 5 2 1 2 5 6 8 10 10 11 2 2 2 1 3 4 4 6 6 5 3 3 5 4 5 5 5 6 6 6 5 5 6 6 6 8 9 10 8 9 9 10 9 9 8 9 8 7 7 7 7 7 5 5 4 4 6 6 6 7 8 8 9 8 9 9 10
8 3 4 3 7 10 10 9 9 8 7 3 5 6 4 6 4 4 6 5 3 3 1 6 7 9 8 9 8 4 3 2 3 3 3 4 4 3 3 4 5 5 4 3 3 3 3 4 5 5 5 4 5 6 6 6 7 6 8 8 8 7 8 7 7 8 7 6 6 6 5 5 5 5 4 5 6 7 7 7 6 7 8 9 9 9
4 1 2 6 10 10 11 10 10 9 7 5 3 2 3 8 7 8 10 8 4 4 4 1 4 6 7 10 9 6 5 5 4 4 4 2 2 3 3 3 1 3 2 3 2 1 1 1 3 3 4 4 5 5 5 5 6 5 5 7 7 6 6 7 7 8 7 7 8 8 7 8 8 8 7 8 8 6 7 7 6 7 7 7 8 9
1 1 2 7 8 9 11 10 11 10 7 7 6 4 3 6 8 9 9 5 4 4 3 1 6 3 5 6 7 5 4 5 4 4 3 2 2 2 2 1 1 0 1 2 2 1 2 3 3 4 3 4 5 4 3 2 4 5 5 6 7 6 5 6 7 8 7 7 8 9 9 8 8 7 6 5 5 6 5 5 6 6 6 7 8 8
5 4 3 5 8 7 7 10 6 9 6 6 3 2 5 8 9 9 9 7 2 4 4 2 2 4 5 3 6 6 5 5 5 5 4 3 2 1 1 1 0 1 1 1 2 3 3 3 2 4 4 3 3 3 4 5 4 6 5 6 6 5 5 6 6 7 7 7 7 7 8 7 7 7 6 5 5 5 5 5 5 5 5 5 5 6
3 6 6 8 8 8 9 1 4 11 5 1 0 2 6 7 8 8 7 3 2 2 3 5 2 3 7 3 4 6 6 7 8 7 5 3 2 2 1 2 2 2 2 1 2 3 3 4 4 4 4 4 4 3 4 5 6 6 6 6 6 6 6 6 7 7 7 6 6 7 7 7 6 6 5 4 4 3 4 4 4 6 6 5 5 6
2 1 3 3 9 9 4 3 6 2 6 1 3 4 7 7 6 5 3 3 2 3 5 6 3 4 7 4 5 4 6 9 9 7 5 3 3 2 2 3 3 3 3 3 3 4 4 4 4 4 5 5 4 4 5 5 5 6 6 7 7 7 5 6 7 6 7 6 6 5 6 6 5 4 3 3 4 4 3 5 6 6 6 5 6 6
2 1 3 3 1 4 6 6 3 5 7 10 7 11 8 6 4 3 1 2 3 4 4 5 0 2 3 5 7 7 5 6 8 6 4 5 4 3 3 3 2 3 3 3 4 5 5 4 5 5 6 6 6 5 6 6 6 6 7 7 8 7 6 5 7 6 7 6 5 5 4 5 5 4 4 4 4 4 4 5 5 5 5 5 5 4
4 4 2 3 1 3 3 8 7 1 7 8 5 8 9 5 4 3 2 1 4 5 3 3 1 2 6 3 3 5 3 1 6 9 9 8 7 5 4 3 3 3 4 4 4 5 5 6 5 5 6 7 7 7 7 6 7 7 7 8 9 7 7 7 6 6 6 5 5 4 4 4 3 4 4 4 4 4 5 5 5 4 4 4 4 5
5 4 3 4 2 1 5 9 4 3 2 2 9 9 7 5 3 4 3 5 7 4 2 2 1 2 11 10 3 1 3 2 2 5 9 10 8 7 5 4 3 3 4 4 4 4 4 4 5 5 6 6 6 6 7 7 6 7 8 8 9 8 7 7 6 7 6 5 4 3 3 2 1 3 2 3 4 4 4 4 4 4 4 4 4 4
3 5 3 3 3 5 6 9 6 5 6 8 10 10 7 6 5 5 6 2 1 3 3 3 1 5 5 7 10 7 6 6 6 7 8 9 9 8 6 5 4 3 4 4 4 4 4 4 4 5 5 5 5 6 6 6 6 6 6 7 8 7 6 7 7 7 6 6 5 4 4 3 3 3 3 3 3 3 3 3 3 4 4 4 4 5
5 2 8 10 4 8 5 3 7 5 11 10 2 9 6 5 3 6 6 6 3 1 3 4 1 3 5 2 6 6 9 8 7 6 6 6 7 6 5 5 5 5 4 4 4 4 4 4 5 5 5 5 5 6 5 5 6 6 6 7 8 8 7 7 6 6 6 5 5 4 3 3 3 2 2 2 1 1 2 2 2 3 3 3 4 4
7 2 5 5 3 1 8 1 3 4 7 1 1 3 2 4 3 1 2 1 3 3 3 2 5 3 3 5 4 4 8 7 7 7 6 6 6 6 6 6 5 5 4 4 4 5 5 5 5 5 5 5 5 6 5 6 5 6 7 7 7 8 7 7 7 6 6 5 5 5 4 4 3 2 1 1 1 1 1 2 2 3 3 4 4 4
1 3 3 2 0 1 2 4 1 3 7 6 3 4 2 5 6 4 2 3 1 1 4 5 4 6 4 5 8 8 9 7 6 8 8 8 8 7 6 5 5 5 5 4 4 4 5 5 5 5 5 5 5 5 6 6 6 6 6 7 8 8 7 7 7 6 6 6 6 6 5 4 4 4 4 3 3 2 2 2 2 3 3 4 4 4
7 4 2 1 4 2 2 4 2 5 3 5 3 6 3 0 3 1 3 2 2 4 2 4 5 5 5 3 9 11 10 9 8 10 9 9 8 8 6 5 5 5 4 4 5 5 5 5 5 5 5 6 6 6 6 7 6 6 6 7 7 7 8 7 7 7 6 6 6 6 6 6 5 4 4 4 4 4 3 3 3 3 4 5 5 5
4 4 2 3 2 2 0 2 2 1 3 2 1 1 5 3 4 3 2 2 4 4 4 5 8 6 6 5 7 12 13 13 12 12 12 11 10 9 8 7 6 6 5 5 5 4 4 4 4 5 6 6 6 6 6 6 6 6 7 7 7 8 7 7 6 6 6 6 5 5 6 6 6 6 5 5 5 4 4 5 5 5 5 4 5 5
1 2 2 2 2 2 1 4 7 5 3 3 1 2 3 2 4 5 5 2 2 5 3 3 4 4 7 6 12 14 16 16 15 14 14 14 13 10 9 8 7 7 6 5 5 4 4 4 4 4 4 5 5 5 5 6 5 7 6 7 7 8 7 8 8 7 8 7 7 6 6 7 6 6 6 6 5 5 5 5 5 5 5 5 5 5
3 3 3 2 1 2 4 5 7 9 8 5 6 6 2 1 2 3 2 5 4 4 5 5 3 4 5 9 11 14 17 17 17 16 14 14 13 11 10 9 8 7 6 5 5 5 5 5 5 5 5 5 5 5 5 5 6 6 6 7 7 7 8 8 7 7 7 6 7 7 7 6 6 6 5 5 5 5 5 4 5 5 4 4 4 5
2 2 4 5 4 5 3 5 3 4 2 7 9 9 10 7 4 6 5 2 0 3 3 3 5 1 3 4 1 5 10 15 15 16 14 15 14 12 10 10 9 8 7 7 6 6 5 5 5 5 4 4 4 5 5 5 5 6 6 5 6 6 6 6 6 6 6 6 6 7 6 6 5 4 4 5 5 5 5 5 4 5 4 4 4 4
1 3 6 5 4 5 3 2 3 1 1 2 2 6 8 7 5 4 7 3 1 1 3 1 3 3 4 2 3 2 5 2 14 15 14 14 14 12 10 10 8 8 8 8 7 6 5 6 6 5 5 5 5 5 5 5 5 5 6 6 6 6 6 5 5 5 5 6 6 6 5 4 4 4 4 5 5 6 6 5 5 4 5 4 4 4
2 3 4 3 3 1 3 1 3 1 2 3 7 4 2 9 10 6 3 2 4 4 2 3 4 3 3 2 2 3 2 5 1 14 15 14 12 11 11 10 10 9 7 7 6 6 6 6 6 6 7 6 5 5 5 5 5 5 5 5 5 6 5 4 4 4 5 6 6 6 6 5 5 6 7 7 6 7 6 5 4 4 5 5 4 5
4 2 5 5 2 2 2 2 1 1 1 5 7 8 7 1 6 3 1 0 2 7 7 5 7 6 3 1 2 1 2 3 2 9 13 14 12 11 11 9 8 8 8 8 8 8 8 8 8 7 6 6 5 5 5 4 5 5 5 5 5 5 5 4 4 4 4 5 7 7 7 7 6 6 7 6 5 6 5 5 5 5 5 5 6 6
5 6 9 7 8 8 8 9 10 8 11 6 3 3 9 7 7 3 4 4 6 4 9 5 7 5 3 3 3 4 5 5 5 8 10 9 12 12 10 9 10 9 9 10 9 9 10 8 6 6 6 5 5 5 4 4 5 5 5 5 4 4 4 4 4 4 5 5 6 6 7 6 5 6 6 6 5 5 5 4 5 5 5 5 6 6
2 1 8 11 11 11 9 9 6 7 7 6 12 13 12 13 12 7 1 5 9 4 7 9 10 7 3 6 5 6 7 10 12 10 12 11 10 10 10 10 11 10 10 11 10 8 7 7 8 7 6 5 5 4 4 4 5 5 5 6 5 5 5 4 5 5 4 4 5 5 6 5 5 5 5 5 4 4 4 4 4 4 5 5 5 5
1 3 7 10 11 11 5 2 6 14 12 15 17 15 14 12 10 9 10 13 10 3 8 9 11 9 13 8 8 8 8 8 9 11 11 9 10 11 11 10 10 9 9 9 9 9 10 9 8 8 7 7 5 5 5 4 4 5 5 5 4 4 4 3 4 4 4 3 4 5 5 5 4 4 4 4 4 4 4 4 4 4 4 3 4 3
5 7 10 11 13 10 5 3 8 10 12 10 12 10 12 14 13 12 13 15 9 8 12 14 13 14 16 10 9 11 11 12 15 16 17 16 11 9 10 11 12 11 11 10 10 10 10 10 9 9 8 6 6 6 6 5 5 5 5 4 4 4 5 4 4 3 3 3 4 4 4 4 3 3 4 4 3 4 4 4 3 3 3 3 4 4
3 6 7 10 12 9 4 3 2 8 7 8 9 11 13 13 14 16 16 16 17 13 13 14 4 14 12 9 10 10 10 10 9 7 6 9 11 11 11 11 12 12 12 12 12 11 10 10 9 9 8 7 7 7 6 5 5 4 5 5 5 5 4 3 3 2 2 3 3 4 4 4 4 3 3 4 4 5 5 4 5 5 4 5 4 4
3 3 6 4 5 7 3 3 2 2 4 6 4 8 12 13 15 14 14 16 17 17 14 12 7 9 9 7 6 4 7 5 7 11 13 13 11 12 13 14 14 13 13 12 12 11 11 10 9 8 8 7 7 6 5 5 5 5 6 5 5 4 3 2 1 2 2 3 3 4 4 4 4 3 4 4 4 4 4 5 5 5 6 5 5 5
2 1 2 4 5 4 2 4 4 3 3 1 2 6 11 11 13 12 13 13 14 14 17 14 14 12 11 8 3 6 7 9 10 11 12 12 12 13 15 14 13 13 14 14 13 11 10 9 9 8 8 7 6 6 5 5 5 5 5 4 4 3 1 1 2 2 2 3 3 4 4 4 4 4 3 4 4 5 4 5 5 4 5 6 5 5
5 3 3 4 5 4 3 1 5 4 1 4 8 12 16 17 17 15 14 14 14 16 16 11 16 16 3 10 7 5 7 9 10 11 12 13 13 14 15 15 15 13 14 13 12 11 10 10 9 9 8 7 6 5 5 5 5 5 4 3 3 1 1 1 1 2 2 3 3 4 3 3 4 3 3 4 4 4 4 3 4 3 4 5 6 7
8 9 4 7 8 2 3 3 4 4 9 11 11 17 16 17 18 13 12 16 17 17 12 14 12 4 9 9 11 10 10 11 12 13 13 14 14 12 12 12 12 12 11 10 10 10 10 8 8 8 7 7 6 6 6 5 5 5 3 3 1 1 2 2 1 2 2 3 4 4 4 3 4 4 4 4 5 5 6 4 5 5 6 4 5 6
7 6 5 4 5 2 2 3 4 11 14 9 2 4 16 16 10 13 14 17 16 15 15 16 13 13 9 9 11 10 9 8 7 8 10 10 10 11 15 15 15 13 12 12 11 10 10 10 10 9 8 7 7 6 5 5 4 4 3 2 2 2 2 2 2 3 3 3 3 4 3 4 4 4 5 5 4 3 4 4 4 5 4 4 4 5
8 9 3 3 3 4 3 6 11 9 4 1 2 2 3 6 11 10 16 15 15 16 16 17 17 15 11 8 4 2 3 3 2 3 6 6 6 8 12 12 9 11 11 10 12 12 11 11 11 10 9 7 7 5 4 5 4 3 3 3 3 3 2 2 2 3 3 2 3 3 3 3 4 5 5 5 4 4 4 4 4 6 6 4 5 5
8 5 5 4 3 5 5 10 10 4 5 2 5 6 11 11 11 14 13 14 13 11 13 14 15 15 10 6 5 5 4 2 1 7 8 7 5 7 14 12 9 10 9 8 10 11 10 10 10 10 9 8 6 6 5 5 3 4 5 4 3 3 3 3 3 3 2 2 3 3 3 3 3 4 3 4 4 5 5 6 7 5 4 6 6 6
5 8 5 8 3 4 5 5 4 5 12 11 8 4 8 4 6 8 8 14 11 15 17 17 17 15 13 6 6 6 3 1 7 12 8 9 9 7 2 5 9 9 10 11 11 11 11 10 10 9 8 8 7 5 5 4 4 5 5 4 3 4 3 3 3 2 2 2 2 3 2 3 3 3 3 4 5 5 5 5 5 4 4 6 8 9
2 2 1 8 3 5 6 7 7 9 11 2 4 8 9 7 9 6 4 11 13 14 15 15 16 17 13 8 8 8 4 6 10 10 8 13 9 6 9 7 8 9 9 10 13 13 12 11 11 10 9 8 8 5 4 4 5 6 5 4 4 4 4 3 2 2 3 2 3 2 3 3 2 3 3 4 4 5 7 7 6 5 5 6 7 8
4 5 4 7 6 6 7 9 10 4 8 4 6 4 10 8 11 8 5 10 12 7 12 15 17 16 10 11 12 11 11 11 14 5 5 8 8 7 9 11 11 12 11 11 10 11 12 12 11 10 9 8 7 5 4 5 5 3 5 5 4 4 4 3 3 2 2 3 3 3 3 3 4 5 6 7 7 7 6 6 6 7 7 8 6 7
6 5 8 11 11 10 10 7 5 6 1 4 6 5 7 9 13 10 12 2 3 12 15 12 11 13 13 11 12 9 14 6 2 6 8 11 11 9 9 9 10 11 13 12 12 12 11 9 9 9 8 7 5 4 3 5 6 5 5 5 5 4 3 2 3 3 3 4 4 4 5 6 6 7 6 6 6 6 6 6 7 8 7 9 7 7
6 5 5 7 11 12 10 10 9 6 2 7 4 8 10 9 8 11 3 3 1 2 2 3 8 7 4 8 9 11 3 6 7 7 9 8 9 10 10 11 12 11 10 11 12 12 10 10 10 10 8 6 5 3 1 3 4 5 5 5 5 4 3 3 4 4 5 5 6 6 7 7 7 7 6 6 6 7 7 5 6 6 7 6 7 9
10 7 10 10 5 3 3 8 6 11 3 9 13 4 3 4 2 3 4 2 3 1 1 0 0 2 4 6 9 5 7 5 7 7 8 9 10 11 12 12 12 13 13 13 11 9 10 10 10 9 8 6 4 3 3 3 5 5 5 5 5 4 4 5 5 6 5 6 6 7 7 7 8 8 6 6 6 7 9 7 7 8 7 7 8 9
9 6 4 5 9 7 10 10 7 1 8 10 13 9 8 4 2 1 1 3 0 1 2 0 2 1 2 5 7 6 6 8 6 9 9 8 9 10 10 10 10 11 10 8 9 10 9 10 9 9 7 6 5 4 4 4 5 5 6 6 4 4 4 5 6 5 6 6 7 7 7 7 7 7 6 6 7 7 7 8 8 8 6 6 7 8
8 9 4 6 6 7 5 8 2 1 6 4 5 6 8 7 3 1 5 4 2 1 2 1 2 2 2 2 3 8 6 5 8 8 10 10 10 11 12 11 11 10 9 9 8 8 7 8 10 9 8 6 6 5 5 4 5 6 7 4 4 4 5 5 5 6 6 7 7 6 6 6 7 7 5 5 6 7 7 7 7 8 7 6 6 7
5 1 1 1 3 0 3 2 5 1 1 4 1 3 4 2 1 1 1 1 1 2 4 2 1 1 3 4 7 4 5 7 9 8 8 9 10 9 9 10 9 9 9 8 8 6 7 8 8 8 8 7 6 5 5 5 5 6 5 4 4 4 4 5 6 6 6 6 5 5 6 6 6 4 4 6 5 5 6 7 8 7 7 6 6 6
1 1 0 3 0 7 9 11 8 4 3 4 3 2 1 1 2 3 2 2 2 4 2 2 2 1 2 3 7 7 7 8 9 8 8 9 9 10 9 9 9 9 9 9 8 8 7 8 7 8 8 7 5 5 5 5 6 5 4 4 4 4 5 5 5 5 5 5 5 5 4 5 4 5 5 4 4 5 5 5 6 7 8 6 7 8
3 3 2 3 2 10 2 3 5 4 2 2 0 1 3 3 3 2 2 4 3 3 2 1 2 2 3 5 6 8 8 9 11 10 9 8 9 9 9 9 10 9 7 7 7 5 6 6 7 7 7 6 5 4 4 5 5 4 4 4 5 5 5 5 5 4 4 5 5 4 4 5 7 7 6 5 5 6 6 5 6 6 8 7 6 8
1 7 3 6 6 4 7 4 3 2 4 3 2 4 6 5 1 2 3 3 2 0 1 2 2 2 6 7 7 9 10 10 9 11 11 9 9 9 9 8 8 8 9 8 6 5 6 7 7 7 7 6 5 4 4 4 4 5 6 5 5 5 5 5 5 4 4 4 4 4 4 4 4 5 7 7 7 6 6 7 7 9 10 10 7 8
2 5 3 4 4 6 6 3 5 3 4 2 2 4 6 5 3 1 2 2 3 3 2 2 0 2 1 2 2 8 11 10 8 9 11 9 10 10 10 9 9 9 8 7 6 7 7 7 8 8 7 5 5 5 4 5 5 5 5 4 5 5 6 5 4 4 3 3 3 3 4 4 5 5 5 6 7 9 10 10 13 12 11 13 13 16
8 5 6 5 6 4 5 3 3 2 4 5 3 3 3 2 1 4 6 4 3 3 3 4 3 2 3 2 1 8 10 9 10 9 9 8 8 7 8 10 10 8 8 7 8 7 7 7 7 7 7 5 5 5 4 5 5 5 5 5 5 5 5 4 4 3 3 3 3 4 5 5 5 5 6 6 7 7 9 12 10 12 18 20 23 24
Wind_Direction
163 190 195 202 199 197 199 205 213 254 204 195 192 199 198 190 169 84 92 65 310 254 224 225 240 253 258 245 236 233 163 201 231 242 237 236 239 238 233 226 220 215 224 107 130 155 172 171 175 184 190 198 200 205 205 202 204 205 202 199 204 196 195 199 203 206 208 210 215 221 226 229 230 230 231 230 227 226 227 225 219 211 214 211 213 214
206 203 206 205 201 190 198 114 158 170 198 189 182 194 193 200 181 87 112 115 47 276 211 216 259 261 259 256 251 244 218 224 230 231 231 230 229 230 224 228 224 220 131 137 194 193 182 188 183 177 189 194 197 202 203 204 204 204 205 205 201 196 194 199 201 202 208 211 216 219 221 227 233 226 222 234 234 226 220 223 227 223 225 218 221 217
199 210 202 193 132 142 109 127 141 173 180 189 197 193 205 182 90 133 98 102 119 173 245 121 260 262 257 253 240 232 222 229 235 253 253 272 257 246 245 249 249 237 232 196 205 180 187 174 178 183 191 197 207 199 202 204 201 202 204 207 203 198 197 197 198 204 207 210 218 223 226 222 231 239 251 245 239 234 233 229 228 233 227 212 216 205
192 213 141 114 149 136 133 155 157 142 178 184 192 191 210 142 177 188 156 148 132 251 334 3 291 275 268 257 246 126 166 227 317 262 254 243 243 244 252 283 292 279 269 245 222 197 181 176 183 190 192 194 195 201 196 196 199 197 202 202 201 200 197 195 196 203 215 219 220 221 237 237 241 250 251 251 258 252 234 231 229 234 236 230 233 225
189 74 356 166 148 169 166 176 182 178 177 196 201 193 169 153 160 352 142 146 117 194 284 287 275 265 243 239 216 134 134 187 208 214 220 196 218 258 269 259 240 264 278 272 232 197 189 184 186 184 182 175 185 196 192 187 190 194 195 194 195 197 195 193 187 189 204 221 220 220 220 238 248 250 249 239 239 238 244 257 258 255 243 239 236 229
144 27 319 167 176 177 175 185 198 196 197 170 242 304 152 166 119 108 121 139 187 207 174 265 267 257 216 212 224 139 172 179 153 205 198 175 182 201 229 230 237 229 224 246 249 248 217 198 142 152 166 183 197 192 190 189 192 185 181 183 182 187 191 193 185 181 187 200 209 207 212 215 222 230 228 232 243 246 241 240 236 245 255 259 252 248
67 117 239 149 167 185 193 201 197 206 209 185 178 136 103 149 135 136 152 180 190 236 129 276 232 261 134 210 195 164 188 179 148 200 185 177 192 183 200 210 227 285 155 151 185 185 170 148 150 139 139 155 168 142 129 151 176 173 169 171 171 175 178 181 178 178 180 194 206 213 216 221 226 231 238 244 248 255 259 260 256 262 262 257 265 272
142 125 96 170 152 171 184 210 170 206 213 203 22 170 139 152 147 160 166 209 57 82 102 220 254 266 278 199 140 152 189 200 198 183 185 160 165 163 135 141 95 112 80 84 104 111 100 98 98 112 112 131 116 133 157 160 165 165 154 151 159 160 160 161 172 174 180 190 199 205 212 219 224 230 242 240 240 248 257 267 282 279 273 280 277 277
159 140 162 150 177 179 201 220 125 199 239 60 44 273 162 174 163 162 183 182 36 267 211 171 156 255 244 212 121 158 210 211 212 197 171 151 118 112 114 93 110 86 78 56 109 91 85 89 85 95 101 100 107 119 135 136 142 147 145 145 150 148 151 152 171 171 178 189 188 195 201 210 225 233 244 262 270 305 319 302 291 274 280 280 275 268
21 137 142 188 171 189 73 39 357 21 198 183 184 95 82 82 110 165 177 166 170 213 240 162 176 236 267 205 170 180 239 221 206 180 163 132 119 104 99 92 90 92 82 67 74 78 82 82 87 86 98 94 91 101 110 110 115 124 134 139 143 136 143 142 152 168 170 178 186 188 196 207 208 217 241 266 276 289 317 284 282 286 283 279 276 277
5 340 262 19 218 46 105 60 23 28 74 141 167 113 105 102 112 76 74 189 183 238 224 84 239 302 284 225 196 174 198 228 172 157 139 131 128 120 99 105 101 97 93 88 82 83 84 87 94 102 95 97 97 97 99 103 105 104 107 111 106 97 99 125 140 155 157 166 180 189 196 201 216 224 241 248 249 252 257 258 266 265 272 274 276 282
101 107 172 67 307 168 109 84 41 27 133 154 147 138 121 106 138 171 169 215 228 239 85 342 80 277 220 230 203 71 49 22 165 173 162 156 151 138 133 117 97 96 101 104 101 100 104 100 96 97 94 94 96 95 94 97 107 112 114 119 120 121 122 123 128 143 145 157 168 187 190 202 215 223 231 246 265 275 286 289 286 288 285 275 277 280
121 124 77 64 291 221 168 104 65 82 205 214 155 160 164 158 168 188 181 200 219 241 88 67 267 238 239 248 72 193 140 118 205 163 157 153 146 140 133 119 104 92 99 98 96 98 96 91 94 91 90 88 78 80 88 93 98 108 118 122 116 116 123 124 132 133 134 141 146 152 171 202 339 345 272 265 262 280 278 278 281 287 286 290 274 261
103 117 158 104 177 240 228 160 140 165 199 189 180 176 186 174 180 210 194 216 210 67 269 99 25 260 308 259 256 199 151 131 111 113 135 142 142 137 132 125 117 94 84 85 82 78 78 79 75 78 81 79 81 83 83 85 89 93 98 101 104 106 112 120 126 130 132 135 136 141 144 156 169 188 208 222 234 241 260 271 282 278 285 292 292 298
156 215 205 170 173 168 222 265 167 169 172 197 205 194 204 190 179 193 189 189 205 122 112 241 180 233 183 175 27 37 120 109 95 96 85 102 115 115 113 114 120 110 90 82 83 77 80 72 74 76 76 77 80 86 83 84 91 95 99 103 104 103 103 110 115 121 123 120 127 132 138 156 161 171 180 192 196 242 260 290 286 284 290 288 300 303
195 119 45 8 337 322 189 297 325 150 166 159 302 16 280 227 1 229 37 346 122 150 145 168 235 307 297 103 107 106 113 108 112 111 135 126 128 129 138 142 133 123 109 98 96 88 73 72 75 75 73 70 71 74 74 78 81 86 90 95 95 97 97 96 97 95 97 100 96 94 100 96 80 80 72 100 81 25 357 333 319 313 303 312 315 310
92 179 18 104 32 97 33 346 357 281 187 177 147 207 173 14 103 107 123 89 6 334 248 139 241 249 228 184 140 148 142 134 136 149 154 152 150 159 154 142 134 123 116 111 104 97 94 78 66 66 69 72 69 64 62 60 65 78 88 91 90 87 83 80 81 85 87 95 95 86 84 80 78 71 56 48 38 17 7 346 332 325 328 316 312 319
185 112 38 15 161 59 11 342 33 49 320 99 216 180 138 270 359 175 225 127 230 231 227 135 210 233 161 242 146 152 171 158 170 170 170 163 164 172 158 152 139 129 111 101 92 85 85 78 75 68 59 60 68 73 72 64 54 55 62 75 83 79 76 72 73 70 71 77 76 72 69 65 61 59 57 47 34 27 21 11 4 358 346 350 340 322
111 109 108 2 39 51 113 247 129 115 35 298 169 97 177 183 212 191 246 204 204 221 241 193 214 253 234 201 159 179 184 181 180 177 176 171 180 175 162 152 135 123 129 128 125 116 101 91 79 71 75 69 66 64 64 64 67 69 64 64 71 74 70 71 69 72 64 61 60 59 58 57 55 50 48 42 33 34 29 23 14 4 352 345 346 338
349 147 118 48 61 99 214 210 198 173 178 56 183 192 38 342 236 178 200 288 206 236 214 210 133 241 198 229 175 186 194 186 177 178 185 179 181 173 164 159 156 161 156 145 135 124 114 101 90 85 87 78 68 65 62 64 65 65 66 70 75 76 73 69 64 65 65 55 57 57 59 52 53 51 49 42 36 40 32 28 15 6 1 354 338 342
159 333 141 111 360 176 180 208 215 175 168 167 181 178 191 214 6 341 228 216 220 235 227 240 225 231 202 198 193 193 193 189 180 179 179 178 179 171 165 162 167 165 156 150 142 135 126 115 106 95 86 79 72 62 59 58 57 59 62 66 64 73 71 69 65 66 63 62 59 56 54 49 45 48 49 51 44 45 37 31 21 15 352 336 349 346
138 225 140 133 150 209 172 34 356 6 239 198 189 192 191 164 167 185 214 88 16 224 238 215 242 304 89 10 241 217 196 191 182 172 174 173 173 166 163 168 167 161 157 155 150 142 136 127 115 107 97 91 83 78 76 72 71 66 65 63 66 64 67 75 69 71 73 70 67 63 60 55 49 45 47 58 52 44 39 29 23 5 349 351 350 346
90 82 111 158 183 184 47 46 24 300 206 304 308 218 198 203 200 203 226 181 178 210 24 323 351 244 71 44 9 43 17 184 171 165 168 170 169 164 163 162 162 160 158 158 152 147 141 137 136 128 122 111 103 96 89 80 75 75 73 68 64 66 62 64 76 80 88 86 82 76 70 62 50 40 50 55 48 36 28 18 11 5 350 352 340 344
61 119 104 78 62 335 182 175 181 173 314 269 243 257 243 202 207 228 271 104 179 124 212 224 229 254 103 61 28 37 9 347 180 169 166 166 164 162 156 159 158 155 153 148 147 148 148 143 138 138 135 127 118 108 99 93 90 85 76 75 75 70 63 58 58 76 91 93 87 81 72 60 47 42 38 43 39 30 23 11 6 357 353 353 348 349
175 183 128 138 135 147 242 183 173 120 212 229 222 200 214 72 74 97 123 299 266 184 205 198 237 253 130 156 61 146 109 166 192 178 168 161 160 156 157 154 150 151 153 161 164 161 156 158 159 150 138 130 121 117 111 106 101 92 83 78 80 74 66 56 41 52 64 80 80 67 61 51 43 40 38 38 32 25 16 10 4 1 353 354 349 348
193 156 165 162 174 178 188 200 202 198 209 207 229 158 184 191 178 145 228 193 243 184 196 223 245 252 95 157 159 149 152 165 188 182 176 162 154 156 155 156 160 163 171 172 168 165 168 162 144 135 133 126 123 120 116 108 99 90 83 73 61 73 70 57 49 38 43 50 66 68 62 56 45 39 36 31 29 18 14 6 5 357 356 355 345 341
166 129 204 192 191 201 202 211 198 133 106 182 202 197 195 201 197 199 1 220 222 198 199 217 235 250 187 179 179 183 180 180 179 182 175 161 160 157 157 164 168 170 175 175 169 167 149 145 148 140 131 127 122 116 109 104 96 95 92 79 65 57 56 50 52 49 47 50 65 70 64 56 46 37 31 25 14 6 4 4 356 352 350 342 330 332
121 181 204 222 228 228 230 145 126 160 175 195 196 199 200 190 188 193 202 222 208 197 244 229 229 242 248 187 187 191 195 191 185 186 179 161 167 167 164 161 160 166 172 170 171 168 163 156 147 144 141 137 130 122 108 92 88 85 83 82 73 65 64 48 54 52 47 53 62 64 61 55 39 33 23 11 6 4 2 352 351 345 329 322 317 320
173 208 202 211 227 227 69 143 163 181 201 206 210 186 174 179 182 187 215 232 212 210 232 236 215 228 243 223 191 189 185 189 190 190 188 181 159 148 149 159 172 176 176 179 175 172 166 160 157 151 144 137 133 125 116 110 101 98 95 90 84 77 58 46 55 58 61 61 61 58 55 54 40 27 17 15 5 5 359 353 346 334 322 320 313 308
181 229 199 201 220 218 117 123 196 197 196 207 197 188 187 177 186 197 215 221 218 222 229 243 177 225 237 234 218 190 185 196 196 177 152 155 168 164 165 168 179 184 181 180 177 175 169 162 154 149 142 140 137 131 128 121 115 104 103 90 73 67 50 42 59 68 83 75 60 52 52 50 40 24 14 18 8 360 353 342 341 330 320 313 306 303
210 210 159 146 222 217 99 94 63 270 211 207 186 184 177 183 196 205 216 226 225 236 242 252 280 271 248 227 231 106 123 122 141 166 183 186 170 168 176 185 189 187 183 181 176 172 167 154 146 140 142 140 132 131 122 118 114 105 90 80 74 70 57 47 97 106 70 64 53 47 42 43 27 10 15 7 357 351 338 335 328 316 313 311 304 297
182 224 27 136 206 213 133 144 146 83 35 356 141 168 180 175 200 207 219 220 215 223 235 241 251 253 250 166 131 105 121 148 168 179 185 191 186 181 189 191 188 187 182 181 173 165 153 151 149 150 146 138 132 128 126 115 102 91 85 83 77 74 47 75 79 88 78 56 47 41 33 29 12 6 0 359 347 331 324 307 302 297 303 301 298 304
182 146 151 173 210 207 35 135 125 113 90 261 229 203 196 199 202 208 215 221 213 213 226 226 235 241 210 151 157 153 171 181 187 188 194 197 193 188 192 192 193 188 180 175 166 159 158 156 155 149 139 135 136 126 105 99 99 96 94 90 94 105 178 138 142 118 88 67 54 43 33 22 8 359 350 342 332 315 315 313 313 315 322 318 312 304
179 185 183 170 220 160 357 122 150 125 221 226 218 209 188 199 202 200 204 212 215 208 221 222 238 244 154 176 191 195 186 190 195 199 195 190 191 190 195 196 194 184 170 157 151 156 157 146 140 137 134 128 119 102 98 93 91 98 94 101 137 182 186 172 149 92 64 57 46 32 25 12 357 354 347 338 327 323 323 324 322 326 315 309 314 314
180 181 198 158 213 165 174 159 153 220 232 229 17 150 201 212 198 205 221 219 219 217 227 244 246 241 194 201 204 208 198 191 198 196 202 207 199 183 186 189 188 172 158 153 157 161 153 143 135 132 127 126 120 113 114 110 109 114 125 149 170 195 189 158 109 65 48 42 39 21 9 5 354 350 340 335 334 325 313 314 313 321 313 309 310 309
173 181 152 182 162 82 159 171 219 229 226 69 109 70 1 192 206 210 239 235 225 217 215 227 236 235 228 203 197 57 63 51 66 244 232 206 181 179 184 192 166 155 159 167 159 152 145 145 145 141 133 119 117 119 121 118 120 135 141 167 187 174 152 124 101 77 42 39 28 12 356 353 338 335 329 323 317 308 310 310 312 319 314 307 303 298
192 170 174 174 163 196 173 197 221 17 328 162 222 203 178 189 180 192 227 236 215 217 212 226 235 239 231 188 128 83 74 68 291 256 213 184 175 192 198 198 147 156 144 124 132 133 132 131 130 123 118 121 123 123 114 111 132 161 170 177 177 168 135 115 94 58 39 31 20 354 344 340 330 321 316 318 319 329 327 326 322 308 308 308 298 291
213 195 187 189 207 204 191 213 220 233 251 233 219 113 180 154 167 183 213 262 236 211 214 216 228 230 227 114 128 105 95 133 249 246 194 166 193 190 112 140 144 139 127 120 115 116 119 115 110 113 122 120 115 107 106 130 173 181 175 166 162 149 122 99 75 44 24 19 5 356 352 350 345 332 333 341 335 321 314 310 298 301 316 310 314 312
302 303 256 210 171 176 212 217 205 217 234 306 150 157 166 166 161 128 186 256 245 211 202 205 223 233 219 170 152 134 143 211 235 237 166 179 186 155 127 104 103 105 111 121 130 127 123 122 122 121 119 119 115 117 130 165 189 178 161 151 137 123 110 83 59 27 14 3 1 4 9 360 358 354 348 333 328 330 323 321 314 309 313 313 307 301
177 205 188 216 212 197 196 212 227 198 251 170 161 152 164 146 122 123 208 244 263 170 190 210 219 226 201 189 160 176 189 222 233 252 121 141 124 123 134 133 126 121 115 113 109 115 117 117 118 122 123 124 121 125 162 187 171 157 141 126 112 106 89 60 30 4 1 360 5 15 10 8 8 5 355 340 333 331 320 312 312 323 324 317 308 306
183 189 207 211 210 212 206 235 258 253 194 142 151 129 136 152 144 174 212 226 153 161 186 198 199 207 202 187 169 187 214 227 17 93 109 114 111 105 99 104 110 117 123 123 119 116 118 123 123 123 122 117 119 136 173 183 160 135 115 112 104 87 59 27 17 11 12 6 10 14 13 9 5 351 343 337 324 314 314 315 319 318 319 314 308 310
183 180 201 205 213 213 210 219 229 270 207 135 37 139 150 139 201 211 187 332 342 18 359 166 196 212 195 186 183 209 127 83 112 97 113 119 118 122 115 113 110 101 97 105 120 126 121 118 114 112 108 108 112 117 114 142 128 115 115 104 86 63 23 20 19 16 12 14 14 11 4 359 352 347 332 325 319 318 309 308 307 307 311 305 304 306
171 176 192 197 199 231 217 229 225 241 177 114 112 77 311 197 242 119 118 7 41 10 118 15 141 162 145 182 198 177 103 107 119 128 112 119 126 131 132 132 130 131 132 133 128 125 126 126 128 127 124 119 110 80 61 97 111 111 107 91 65 36 26 23 20 14 14 12 9 6 356 352 347 333 326 319 317 318 313 312 315 314 308 297 300 303
159 179 168 216 191 187 189 198 211 202 91 181 149 188 188 220 51 146 161 110 278 61 67 25 264 204 197 184 175 144 129 122 121 125 123 111 117 119 120 118 117 118 120 116 122 132 128 123 124 123 118 109 94 76 55 79 104 105 96 73 45 32 29 26 19 15 14 12 5 357 351 340 330 324 319 319 321 317 312 314 316 311 304 304 301 294
180 203 163 202 168 206 204 219 161 336 175 215 22 16 179 151 72 65 51 62 114 138 134 54 262 202 210 199 148 148 133 164 140 148 135 143 136 139 137 140 137 132 125 121 114 117 122 129 130 124 114 102 92 78 64 58 97 99 84 63 47 35 31 23 18 15 13 6 357 345 334 326 322 316 311 324 321 314 313 313 318 311 305 305 297 294
4 313 354 92 215 271 301 195 86 102 236 278 99 59 13 75 89 61 48 87 115 125 168 187 294 184 180 172 148 164 156 140 134 134 127 133 133 125 123 117 108 105 106 105 110 111 117 117 119 122 117 101 84 74 66 57 70 81 73 63 50 38 36 23 14 13 6 354 339 328 320 318 311 308 320 312 308 305 302 304 306 300 299 295 289 287
230 78 43 178 160 167 234 216 186 172 220 242 248 110 142 16 304 3 4 326 31 51 8 15 19 60 160 197 180 155 135 142 133 133 131 133 136 137 135 129 127 133 135 132 127 126 126 128 126 126 120 109 90 77 70 70 70 72 70 58 53 46 33 20 19 14 358 343 325 318 311 312 315 321 317 312 308 300 290 286 289 292 291 291 294 296
245 160 201 200 199 206 256 68 37 57 28 61 8 264 262 227 212 212 35 36 40 46 41 68 93 116 142 187 178 143 142 151 146 149 151 150 146 144 141 139 138 126 112 112 124 117 106 112 121 122 118 107 96 83 84 84 81 76 71 66 53 35 28 28 25 5 339 327 318 315 313 312 319 319 315 308 299 294 295 287 284 282 282 289 296 298
103 129 198 183 214 262 287 236 138 156 162 213 198 234 241 260 339 81 67 52 29 127 166 162 227 230 190 193 170 152 150 171 157 154 149 148 147 151 150 139 133 129 127 126 121 118 120 122 113 114 112 110 105 109 107 105 101 81 64 48 39 29 37 25 9 347 325 322 319 312 318 321 317 314 309 306 301 290 284 295 293 286 282 270 262 257
183 197 163 145 216 223 233 229 126 249 263 141 104 327 306 341 48 69 110 205 217 221 179 173 336 351 360 3 168 163 162 162 152 150 151 155 157 145 138 132 130 128 123 114 107 104 100 103 116 124 123 118 119 122 120 113 99 75 58 53 40 33 33 14 352 333 333 321 315 313 323 319 312 304 303 304 306 304 295 268 264 269 276 288 277 262
211 206 174 208 211 239 65 21 355 1 59 98 95 0 339 348 151 234 229 224 210 210 184 170 173 164 204 236 223 176 173 156 154 138 130 137 135 128 127 131 134 136 135 134 125 121 116 118 118 119 121 123 124 124 116 100 77 65 50 47 33 35 27 3 348 338 323 319 317 321 315 308 306 309 305 298 297 299 303 309 298 272 269 272 281 285